[[{"header":{"parameterUnit":"m.s-1","parameterCategory":1,"la1":30.2991,"la2":30.254,"lo1":-89.0895,"lo2":-89.0444,"dy":0.0017,"dx":0.0017,"nx":28,"ny":28,"refTime":"2024-02-19T09:00:00:Z","depth":0,"parameterNumber":2,"parameterNumberName":"U-component_of_WINDS"},"data":[0,0,0,0,0,0,0,0,0,0,0,0,0,0,0,0,0,0,0,0,0,0,0,0,0,0,0,0,0,0,0,0,0,0,0,0,0,0,0,0,0,0,0,0,0,0,0,0,0,0,0,0,0,0,0,0,0,0,1.2833,1.2834,0,1.2907,1.2908,1.2908,1.294,1.294,1.294,1.294,1.3017,1.3019,1.3021,0,0,0,0,0,0,0,0,0,0,0,0,0,1.272,1.2722,1.2833,1.2834,1.2835,1.2907,1.2908,1.2909,1.294,1.294,1.294,1.2939,1.3016,1.3019,1.3021,0,0,0,0,0,0,0,0,0,0,0,0,0,1.2779,1.2723,1.2833,1.2859,1.2862,1.2906,1.2908,1.2909,1.294,1.294,1.294,1.2939,1.3015,1.3018,1.3022,1.3046,0,0,1.3032,1.3033,0,0,0,0,0,0,0,0,1.2776,1.2783,1.2854,1.2857,1.2861,1.2914,1.2896,1.2955,1.294,1.291,1.294,1.2939,1.2983,1.2989,1.3003,1.3049,1.3053,1.3032,1.3034,1.3035,1.3036,0,0,0,0,0,0,0,1.2771,1.278,1.2862,1.2855,1.2859,1.2867,1.2876,1.2907,1.2947,1.2913,1.2915,1.2924,1.2985,1.3,1.3005,1.3054,1.3032,1.3035,1.3037,1.3038,1.3123,1.3123,0,0,0,0,0,0,1.2763,1.2776,1.286,1.2864,1.2817,1.287,1.2879,1.2897,1.2947,1.2954,1.2924,1.2925,1.2994,1.3001,1.3008,1.3039,1.3035,1.3038,1.304,1.3123,1.3123,1.3124,0,0,0,0,0,0,1.276,1.277,1.2857,1.2821,1.2833,1.2872,1.2892,1.2899,1.2914,1.2955,1.2962,1.2932,1.2994,1.3003,1.3036,1.3042,1.304,1.3043,1.3122,1.3123,1.3123,1.3102,0,0,0,0,0,0,1.2757,1.2769,1.2778,1.2821,1.2835,1.2883,1.2893,1.29,1.2919,1.2921,1.2964,1.2971,1.2995,1.3031,1.3039,1.3047,1.3045,1.3122,1.3123,1.3123,1.3102,1.3102,1.3101,0,0,0,0,0,1.2753,1.277,1.2779,1.2789,1.2847,1.2884,1.2891,1.2918,1.292,1.293,1.2956,1.297,1.304,1.3034,1.3044,1.3052,1.3122,1.3123,1.3123,1.3103,1.3102,1.3101,0,0,0,0,0,0,1.2728,1.2776,1.2786,1.2818,1.2846,1.2889,1.2902,1.2916,1.2945,1.2946,1.2978,1.2987,1.3017,1.3038,1.303,1.3078,1.3082,1.3085,1.3063,1.3063,1.3062,1.3057,1.3048,0,0,0,0,0,1.2726,1.2751,1.2792,1.2816,1.2829,1.2863,1.288,1.2898,1.2929,1.2941,1.297,1.3,1.3028,1.3047,1.3076,1.3105,1.3115,1.3116,1.3115,1.3115,1.3117,1.3133,1.3134,1.3126,1.3126,1.3126,0,0,1.2722,1.2752,1.2766,1.2811,1.2836,1.2861,1.2873,1.29,1.2919,1.2945,1.2978,1.2999,1.3035,1.3066,1.3081,1.3084,1.3121,1.3115,1.3115,1.3117,1.3134,1.3135,1.3136,1.3126,1.3126,1.3126,0,0,1.2729,1.2754,1.2776,1.2799,1.2836,1.2858,1.2863,1.2903,1.2919,1.2951,1.2971,1.2995,1.3044,1.3068,1.3087,1.3101,1.3115,1.3109,1.3106,1.3122,1.3123,1.3124,1.3129,1.313,1.3111,1.3111,1.3111,0,1.272,1.2759,1.2786,1.2811,1.283,1.2854,1.2877,1.2899,1.2943,1.2955,1.2958,1.3019,1.3045,1.3082,1.3085,1.31,1.3107,1.3105,1.3121,1.3122,1.3123,1.3128,1.313,1.311,1.311,1.311,1.311,0,1.2746,1.2773,1.2786,1.2827,1.2848,1.2872,1.2902,1.292,1.2936,1.2958,1.299,1.3022,1.3057,1.3067,1.3083,1.3106,1.3106,1.3114,1.312,1.3122,1.3128,1.313,1.3109,1.3109,1.3109,1.311,0,0,1.274,1.2794,1.2799,1.2817,1.2858,1.288,1.2904,1.2938,1.2953,1.2982,1.3003,1.3044,1.3051,1.3072,1.3091,1.3105,1.3114,1.3111,1.3113,1.3111,1.3141,1.3134,1.3136,1.3123,1.3124,1.3124,1.3138,0,1.2752,1.2797,1.2821,1.2856,1.2881,1.2903,1.2925,1.2953,1.2973,1.2998,1.3021,1.3049,1.3056,1.3069,1.3084,1.3109,1.312,1.3109,1.3144,1.3145,1.3134,1.3139,1.3133,1.3145,1.314,1.314,1.3141,0,1.2772,1.28,1.2837,1.2875,1.2886,1.2905,1.2937,1.296,1.2992,1.3006,1.3029,1.3047,1.3074,1.3076,1.3114,1.3105,1.3121,1.3135,1.3136,1.3141,1.3143,1.3144,1.3149,1.3151,1.3144,1.3144,1.3144,0,1.2764,1.2811,1.2839,1.2854,1.2898,1.2911,1.293,1.2961,1.298,1.3008,1.3021,1.3052,1.3069,1.3093,1.3119,1.3118,1.3154,1.3158,1.3166,1.3166,1.3173,1.3173,1.3181,1.3183,1.3183,1.3183,1.3183,0,1.2775,1.2797,1.2835,1.2853,1.2878,1.2905,1.2929,1.295,1.2978,1.3,1.3021,1.3041,1.3074,1.3098,1.3119,1.3147,1.3154,1.3167,1.3172,1.3165,1.3163,1.3176,1.3176,1.3183,1.3183,1.3183,1.3183,0,1.277,1.2797,1.2829,1.2868,1.2878,1.2895,1.2928,1.2946,1.2967,1.2995,1.3003,1.3037,1.3066,1.3094,1.3134,1.3148,1.3175,1.3182,1.3165,1.3168,1.3174,1.3173,1.3191,1.3195,1.3194,1.3194,1.3194,0,1.2775,1.2793,1.2833,1.2849,1.2867,1.2893,1.2911,1.2939,1.2957,1.2994,1.3007,1.3038,1.3064,1.311,1.3139,1.3169,1.3177,1.3181,1.3182,1.3174,1.3177,1.3176,1.3177,1.318,1.318,1.318,1.318,0,1.2782,1.2794,1.282,1.285,1.2872,1.2897,1.2923,1.2935,1.2967,1.2987,1.3017,1.3037,1.3077,1.3107,1.3141,1.3161,1.3176,1.3179,1.3183,1.3176,1.3165,1.3171,1.3163,1.3179,1.3179,1.3179,1.3179,1.3179,1.2783,1.2799,1.2829,1.2857,1.2879,1.2903,1.2921,1.2945,1.297,1.3004,1.3019,1.3049,1.308,1.3126,1.3146,1.317,1.3173,1.3178,1.318,1.3181,1.3179,1.3161,1.3176,1.3176,1.3176,1.3176,1.3176,0,1.279,1.2811,1.2836,1.2871,1.2893,1.2905,1.2934,1.2951,1.2978,1.3004,1.3029,1.3064,1.3093,1.3123,1.3154,1.3168,1.3175,1.3175,1.3174,1.3179,1.3174,1.3168,1.3168,1.3168,1.3168,1.3168,1.3168,1.3168,1.2797,1.2824,1.284,1.2879,1.29,1.2929,1.2945,1.2966,1.2988,1.3025,1.3049,1.3068,1.3097,1.313,1.3157,1.3165,1.3176,1.3173,1.3183,1.3179,1.3179,1.3179,1.3174,1.3175,1.3175,1.3186,1.3186,1.3186]},{"header":{"parameterUnit":"m.s-1","parameterCategory":1,"la1":30.2991,"la2":30.254,"lo1":-89.0895,"lo2":-89.0444,"dy":0.0017,"dx":0.0017,"nx":28,"ny":28,"refTime":"2024-02-19T09:00:00:Z","depth":0,"parameterNumber":3,"parameterNumberName":"V-component_of_WINDS"},"data":[0,0,0,0,0,0,0,0,0,0,0,0,0,0,0,0,0,0,0,0,0,0,0,0,0,0,0,0,0,0,0,0,0,0,0,0,0,0,0,0,0,0,0,0,0,0,0,0,0,0,0,0,0,0,0,0,0,0,1.6612,1.6611,0,1.655,1.655,1.6549,1.652,1.652,1.652,1.6521,1.6455,1.6453,1.6451,0,0,0,0,0,0,0,0,0,0,0,0,0,1.67,1.6699,1.6612,1.6611,1.661,1.655,1.655,1.6549,1.652,1.652,1.652,1.6521,1.6455,1.6453,1.6451,0,0,0,0,0,0,0,0,0,0,0,0,0,1.6652,1.6698,1.6612,1.6589,1.6586,1.6551,1.655,1.6548,1.652,1.652,1.6521,1.6521,1.6456,1.6453,1.6451,1.6432,0,0,1.6443,1.6441,0,0,0,0,0,0,0,0,1.6655,1.6649,1.6593,1.659,1.6587,1.6543,1.6557,1.6509,1.652,1.6545,1.6521,1.6521,1.6484,1.6479,1.6467,1.6429,1.6427,1.6442,1.6441,1.6439,1.6439,0,0,0,0,0,0,0,1.6658,1.6652,1.6587,1.6592,1.6589,1.658,1.6574,1.6547,1.6515,1.6543,1.6541,1.6534,1.6482,1.647,1.6465,1.6426,1.6442,1.644,1.6438,1.6437,1.6366,1.6366,0,0,0,0,0,0,1.6666,1.6655,1.6589,1.6586,1.6622,1.6579,1.6571,1.6557,1.6515,1.6509,1.6534,1.6533,1.6474,1.6469,1.6463,1.6437,1.644,1.6437,1.6435,1.6366,1.6366,1.6366,0,0,0,0,0,0,1.6668,1.6661,1.6592,1.6619,1.661,1.6577,1.6562,1.6556,1.6543,1.6508,1.6502,1.6528,1.6474,1.6467,1.644,1.6434,1.6436,1.6433,1.6367,1.6366,1.6366,1.6385,0,0,0,0,0,0,1.6671,1.6661,1.6655,1.662,1.6609,1.6571,1.6561,1.6555,1.6539,1.6537,1.6501,1.6494,1.6474,1.6444,1.6437,1.643,1.6431,1.6367,1.6367,1.6366,1.6385,1.6385,1.6386,0,0,0,0,0,1.6674,1.6663,1.6655,1.6648,1.6601,1.6571,1.6564,1.6542,1.6539,1.6531,1.6508,1.6496,1.6436,1.6441,1.6433,1.6426,1.6367,1.6367,1.6366,1.6385,1.6385,1.6386,0,0,0,0,0,0,1.6699,1.6658,1.6649,1.6627,1.6602,1.6566,1.6556,1.6544,1.6519,1.6518,1.649,1.6482,1.6457,1.6438,1.6445,1.6404,1.64,1.6398,1.6417,1.6417,1.6418,1.6422,1.6429,0,0,0,0,0,1.6702,1.6683,1.6648,1.6631,1.6619,1.659,1.6576,1.6561,1.6534,1.6523,1.6499,1.6472,1.6447,1.6431,1.6407,1.6382,1.6372,1.6373,1.6373,1.6374,1.6372,1.6355,1.6354,1.6364,1.6364,1.6364,0,0,1.6708,1.6683,1.6673,1.6635,1.6615,1.6593,1.6582,1.656,1.6543,1.652,1.6493,1.6473,1.6442,1.6415,1.6402,1.6399,1.6367,1.6373,1.6374,1.6371,1.6354,1.6353,1.6352,1.6363,1.6363,1.6363,0,0,1.6708,1.6688,1.6671,1.665,1.6619,1.6599,1.6595,1.656,1.6546,1.6519,1.65,1.6478,1.6437,1.6414,1.6398,1.6386,1.6372,1.6378,1.6381,1.6364,1.6364,1.6363,1.6356,1.6355,1.6377,1.6377,1.6377,0,1.6719,1.6687,1.6664,1.6642,1.6625,1.6603,1.6584,1.6565,1.6527,1.6515,1.6513,1.6458,1.6436,1.6402,1.6399,1.6387,1.6379,1.6382,1.6366,1.6365,1.6363,1.6357,1.6355,1.6378,1.6378,1.6377,1.6377,0,1.6701,1.6679,1.6669,1.6633,1.6614,1.6595,1.6566,1.6551,1.6536,1.6516,1.6486,1.6458,1.6426,1.6417,1.6402,1.638,1.6379,1.6372,1.6367,1.6364,1.6357,1.6355,1.6379,1.6379,1.6378,1.6378,0,0,1.6716,1.6666,1.6662,1.6644,1.6607,1.6589,1.6567,1.6536,1.6522,1.6496,1.6475,1.6439,1.6431,1.6412,1.6394,1.638,1.637,1.6374,1.6373,1.6372,1.634,1.6345,1.6343,1.636,1.636,1.636,1.6342,0,1.6709,1.667,1.6647,1.6616,1.6594,1.6571,1.6552,1.6526,1.6506,1.6482,1.646,1.6434,1.6427,1.6414,1.6399,1.6374,1.6362,1.6375,1.6339,1.6338,1.6346,1.634,1.6346,1.6331,1.634,1.6339,1.6339,0,1.6696,1.667,1.6638,1.6601,1.659,1.6574,1.6542,1.6521,1.649,1.6476,1.6453,1.6435,1.6409,1.6407,1.6368,1.6377,1.6361,1.6346,1.6345,1.6339,1.6338,1.6333,1.6326,1.6323,1.6335,1.6336,1.6336,0,1.6708,1.6665,1.6639,1.6625,1.6582,1.657,1.6551,1.652,1.6502,1.6474,1.6461,1.643,1.6413,1.6388,1.6361,1.6363,1.6325,1.6321,1.631,1.6311,1.6303,1.6304,1.6292,1.6295,1.6295,1.6295,1.6295,0,1.6702,1.6683,1.6643,1.6628,1.6604,1.6577,1.6553,1.6532,1.6505,1.6483,1.6461,1.6441,1.6407,1.6382,1.636,1.633,1.6323,1.6309,1.6304,1.6311,1.6312,1.6299,1.6298,1.6294,1.6294,1.6294,1.6295,0,1.6711,1.6685,1.6655,1.6616,1.6605,1.6589,1.6555,1.6537,1.6515,1.6488,1.6479,1.6444,1.6413,1.6384,1.6343,1.6328,1.6297,1.6291,1.6308,1.6304,1.6295,1.6295,1.6273,1.6267,1.6276,1.6276,1.6276,0,1.6709,1.6693,1.6652,1.6636,1.6618,1.6592,1.6573,1.6545,1.6526,1.6488,1.6474,1.6441,1.6414,1.6364,1.6334,1.6301,1.6293,1.6287,1.6288,1.6294,1.629,1.6291,1.6288,1.6287,1.6287,1.6287,1.6287,0,1.6707,1.6694,1.6668,1.6637,1.6615,1.6589,1.6562,1.655,1.6516,1.6495,1.6463,1.6441,1.6398,1.6365,1.6328,1.6306,1.629,1.6287,1.6283,1.6289,1.6299,1.6291,1.6307,1.6288,1.6288,1.6288,1.6288,1.6288,1.6709,1.6693,1.6661,1.6632,1.6608,1.6583,1.6564,1.6539,1.6512,1.6475,1.646,1.6426,1.6392,1.6342,1.632,1.6292,1.6289,1.6283,1.6281,1.628,1.628,1.6304,1.6286,1.6286,1.6286,1.6285,1.6285,0,1.6704,1.6682,1.6656,1.6618,1.6595,1.6582,1.6551,1.6532,1.6503,1.6474,1.6446,1.6408,1.6375,1.6341,1.6306,1.629,1.6281,1.6281,1.6281,1.6276,1.6286,1.6293,1.6288,1.6288,1.6288,1.6288,1.6288,1.6288,1.6699,1.667,1.6653,1.6611,1.6588,1.6556,1.6539,1.6515,1.6491,1.6449,1.6421,1.64,1.6368,1.6329,1.6298,1.6288,1.6275,1.6277,1.6266,1.6276,1.6276,1.6276,1.6282,1.6275,1.6275,1.6257,1.6257,1.6257]}]]